SHIYAN-12 02 (SY-12 02)

Last updated on Tue Sep 22 2026 00:03:15 GMT+0000 (Coordinated Universal Time)

1 50322U 21129B 26264.64667225 -.00000108 00000+0 00000+0 0 9993 2 50322 3.9141 78.5370 0004085 97.3135 214.0162 1.00441412 17468
UTC large
Height (km)
Speed (km/s)
/
Latitude / Longitude
Inclination (degrees)
Orbital Period (minutes)
Azimuth
Elevation
Range (km)
Doppler Factor

Next 0 passes for location: London (51.5072 / 0.1276)

No passes found over London.
SHIYAN-12 02 (SY-12 02)